Regional Weather Roundup
Issued by NWS

Home | Current Version | Previous Version | Graphics & Text | Print | Product List | Glossary Off
Versions: 1 2 3 4 5 6 7 8 9 10 11 12 13 14 15 16 17 18 19 20 21 22 23 24 25 26 27 28 29 30 31 32 33 34 35 36 37 38 39 40 41 42 43 44 45 46 47 48 49 50

000
ASUS43 KTOP 280708
RWRKS

WEATHER ROUNDUP FOR KANSAS
NATIONAL WEATHER SERVICE GOODLAND KS
200 AM CDT MON MAY 28 2018

NOTE:  "FAIR" INDICATES FEW OR NO CLOUDS BELOW 12,000 FEET WITH NO
SIGNIFICANT WEATHER AND/OR OBSTRUCTIONS TO VISIBILITY.

KSZ001>006-013>018-027>032-041>047-280800-
NORTHWEST KANSAS

CITY           SKY/WX    TMP DP  RH WIND       PRES   REMARKS
GOODLAND       MOCLDY    66  60  81 NE13      29.91R
HAYS           CLOUDY    73  62  68 SE13      29.88
HILL CITY      CLOUDY    76  62  62 SE14G24   29.86F
RUSSELL        PTCLDY    74  65  73 SE17      29.87F
$$

KSZ061>065-074>080-084>089-280800-
SOUTHWEST KANSAS

CITY           SKY/WX    TMP DP  RH WIND       PRES   REMARKS
DODGE CITY     PTCLDY    74  63  68 S25G33    29.89R
ELKHART        PTCLDY    75  68  79 SE18      29.88F
GARDEN CITY    PTCLDY    74  65  73 SE20      29.88R
GREAT BEND     CLOUDY    74  64  71 SE20G25   29.88F
LIBERAL        MOCLDY    75  68  78 SE16      29.90R
PRATT          CLOUDY    74  62  64 SE13      29.91S
$$

KSZ066>073-081>083-090>101-280800-
SOUTHEAST KANSAS

CITY           SKY/WX    TMP DP  RH WIND       PRES   REMARKS
CHANUTE        CLOUDY    72  70  93 CALM      29.93S
COFFEYVILLE    CLOUDY    70  68  93 CALM      29.90F
HUTCHINSON     PTCLDY    72  65  78 SE9       29.91F
MEDICINE LODGE   N/A     74  64  71 E10G21    29.87F
NEWTON         CLEAR     71  66  84 S10       29.93F
PARSONS        CLOUDY    70  69  97 CALM      29.93S
WICHITA INTL   MOCLDY    71  67  87 S6        29.91F
WICHITA JABRA  PTCLDY    70  67  90 S7        29.92F
WICHITA MCCONL CLOUDY    72  66  81 S5        29.92F
WINFIELD       PTCLDY    71  67  87 E3        29.92F
$$

KSZ007>012-019>026-033>040-048>060-102>105-280800-
NORTHEAST KANSAS

CITY           SKY/WX    TMP DP  RH WIND       PRES   REMARKS
CONCORDIA      CLOUDY    74  65  73 S12       29.90F
EMPORIA        MOCLDY    69  67  93 SE5       29.92S
LAWRENCE       PTCLDY    71  69  93 CALM      29.91S
MANHATTAN      CLOUDY    73  67  81 CALM      29.90F
OLATHE IND     PTCLDY    73  71  93 CALM      29.93S
OLATHE EXE     MOCLDY    74  72  93 CALM      29.93S
SALINA         PTCLDY    74  68  81 S10       29.90F
TOPEKA BILLARD CLOUDY    71  70  96 CALM      29.91F
TOPEKA FORBES  CLOUDY    73  70  90 S6        29.92F
$$




USA.gov is the U.S. government's official web portal to all federal, state and local government web resources and services.